• In Portugal
  • List of Countries
  • For 7 days
  • Water Temperature
  • Satellite Maps
  • Weather Map
  • Weather Widgets
  • user-avatar
    Login

    Hourly Weather Rozana

    Today, 23 April, Monday

    Time Temperature Precipitation Wind Pressure Humidity
    00:00 +13°C° 0 mm 2 mps 725 mmHg 73%
    01:00 +13°C° 0 mm 2 mps 725 mmHg 70%
    02:00 +13°C° 0.1 mm 2 mps 725 mmHg 72%
    03:00 +13°C° 0.1 mm 2 mps 724 mmHg 74%
    04:00 +12°C° 0.1 mm 2 mps 724 mmHg 76%
    05:00 +14°C° 0 mm 2 mps 724 mmHg 75%
    06:00 +15°C° 0 mm 2 mps 724 mmHg 75%
    07:00 +16°C° 0 mm 2 mps 724 mmHg 73%
    08:00 +18°C° 0 mm 2 mps 725 mmHg 68%
    09:00 +20°C° 0 mm 2 mps 725 mmHg 63%
    10:00 +22°C° 0 mm 3 mps 725 mmHg 57%
    11:00 +22°C° 0.3 mm 3 mps 725 mmHg 55%
    12:00 +24°C° 0.3 mm 3 mps 724 mmHg 53%
    13:00 +23°C° 0.3 mm 4 mps 724 mmHg 51%
    14:00 +22°C° 0.4 mm 4 mps 724 mmHg 57%
    15:00 +21°C° 0.4 mm 4 mps 724 mmHg 63%
    16:00 +20°C° 0.4 mm 4 mps 724 mmHg 68%
    17:00 +19°C° 0.3 mm 3 mps 724 mmHg 74%
    18:00 +17°C° 0.3 mm 3 mps 724 mmHg 79%
    19:00 +16°C° 0.3 mm 2 mps 724 mmHg 85%
    20:00 +14°C° 0.1 mm 3 mps 724 mmHg 87%
    21:00 +13°C° 0.1 mm 3 mps 724 mmHg 89%
    22:00 +12°C° 0.1 mm 3 mps 725 mmHg 91%
    23:00 +13°C° 0 mm 2 mps 725 mmHg 92%

    Tomorrow, 24 April, Tuesday

    Time Temperature Precipitation Wind Pressure Humidity
    00:00 +12°C° 0 mm 2 mps 725 mmHg 93%
    01:00 +12°C° 0 mm 2 mps 726 mmHg 94%
    02:00 +10°C° 0 mm 2 mps 726 mmHg 94%
    03:00 +11°C° 0 mm 1 mps 726 mmHg 94%
    04:00 +10°C° 0 mm 1 mps 726 mmHg 94%
    05:00 +10°C° 0 mm 2 mps 726 mmHg 90%
    06:00 +12°C° 0 mm 2 mps 727 mmHg 85%
    07:00 +13°C° 0 mm 2 mps 727 mmHg 81%
    08:00 +15°C° 0 mm 2 mps 727 mmHg 74%
    09:00 +16°C° 0 mm 3 mps 727 mmHg 67%
    10:00 +17°C° 0 mm 4 mps 727 mmHg 60%
    11:00 +18°C° 0 mm 4 mps 727 mmHg 58%
    12:00 +19°C° 0 mm 4 mps 727 mmHg 55%
    13:00 +19°C° 0 mm 4 mps 727 mmHg 53%
    14:00 +20°C° 0 mm 4 mps 726 mmHg 53%
    15:00 +20°C° 0 mm 5 mps 726 mmHg 53%
    16:00 +20°C° 0 mm 5 mps 725 mmHg 53%
    17:00 +18°C° 0 mm 4 mps 725 mmHg 58%
    18:00 +17°C° 0 mm 3 mps 725 mmHg 64%
    19:00 +15°C° 0 mm 2 mps 725 mmHg 70%
    20:00 +14°C° 0 mm 2 mps 725 mmHg 72%
    21:00 +13°C° 0 mm 2 mps 726 mmHg 74%
    22:00 +12°C° 0 mm 1 mps 726 mmHg 75%
    23:00 +12°C° 0 mm 1 mps 726 mmHg 78%

    Day after tomorrow, 25 April, Wednesday

    Time Temperature Precipitation Wind Pressure Humidity
    00:00 +11°C° 0 mm 1 mps 726 mmHg 80%
    01:00 +11°C° 0 mm 1 mps 725 mmHg 83%
    02:00 +11°C° 0 mm 1 mps 725 mmHg 84%
    03:00 +10°C° 0 mm 1 mps 725 mmHg 84%
    04:00 +10°C° 0 mm 1 mps 725 mmHg 85%
    05:00 +10°C° 0 mm 2 mps 725 mmHg 82%
    06:00 +12°C° 0 mm 3 mps 725 mmHg 78%
    07:00 +13°C° 0 mm 3 mps 725 mmHg 75%
    08:00 +15°C° 0 mm 4 mps 725 mmHg 69%
    09:00 +16°C° 0 mm 5 mps 724 mmHg 63%
    10:00 +19°C° 0 mm 6 mps 724 mmHg 57%
    11:00 +20°C° 0 mm 6 mps 724 mmHg 55%
    12:00 +21°C° 0 mm 7 mps 724 mmHg 53%
    13:00 +22°C° 0 mm 7 mps 723 mmHg 51%
    14:00 +22°C° 0 mm 7 mps 723 mmHg 51%
    15:00 +22°C° 0 mm 6 mps 723 mmHg 52%
    16:00 +22°C° 0 mm 6 mps 722 mmHg 52%
    17:00 +20°C° 0.1 mm 5 mps 722 mmHg 59%
    18:00 +17°C° 0.1 mm 5 mps 722 mmHg 66%
    19:00 +15°C° 0.1 mm 4 mps 722 mmHg 72%
    20:00 +14°C° 0 mm 3 mps 722 mmHg 77%
    21:00 +13°C° 0 mm 3 mps 723 mmHg 82%
    22:00 +13°C° 0 mm 2 mps 723 mmHg 87%
    23:00 +12°C° 0 mm 2 mps 723 mmHg 88%

    26 April, Thursday

    Time Temperature Precipitation Wind Pressure Humidity
    00:00 +12°C° 0 mm 2 mps 723 mmHg 89%
    01:00 +10°C° 0 mm 2 mps 724 mmHg 91%
    02:00 +10°C° 0 mm 2 mps 724 mmHg 91%
    03:00 +9°C° 0 mm 2 mps 724 mmHg 92%
    04:00 +9°C° 0 mm 2 mps 724 mmHg 93%
    05:00 +10°C° 0 mm 2 mps 724 mmHg 89%
    06:00 +10°C° 0 mm 2 mps 724 mmHg 85%
    07:00 +12°C° 0 mm 2 mps 725 mmHg 81%
    08:00 +13°C° 0.1 mm 2 mps 725 mmHg 76%
    09:00 +13°C° 0.1 mm 3 mps 725 mmHg 70%
    10:00 +14°C° 0.1 mm 4 mps 725 mmHg 65%
    11:00 +14°C° 0.1 mm 4 mps 725 mmHg 62%
    12:00 +14°C° 0.1 mm 5 mps 724 mmHg 59%
    13:00 +15°C° 0.1 mm 5 mps 724 mmHg 56%
    14:00 +14°C° 0.2 mm 5 mps 724 mmHg 59%
    15:00 +13°C° 0.2 mm 4 mps 725 mmHg 62%
    16:00 +12°C° 0.2 mm 4 mps 725 mmHg 64%
    17:00 +11°C° 0.1 mm 4 mps 725 mmHg 66%
    18:00 +10°C° 0.1 mm 3 mps 725 mmHg 68%
    19:00 +9°C° 0.1 mm 3 mps 725 mmHg 70%
    20:00 +9°C° 0 mm 3 mps 726 mmHg 71%
    21:00 +8°C° 0 mm 3 mps 726 mmHg 73%
    22:00 +7°C° 0 mm 2 mps 726 mmHg 74%
    23:00 +6°C° 0 mm 2 mps 726 mmHg 75%

    27 April, Friday

    Time Temperature Precipitation Wind Pressure Humidity
    00:00 +5°C° 0 mm 2 mps 726 mmHg 76%
    01:00 +5°C° 0 mm 2 mps 726 mmHg 78%
    02:00 +5°C° 0 mm 2 mps 726 mmHg 79%
    03:00 +4°C° 0 mm 2 mps 726 mmHg 80%
    04:00 +4°C° 0 mm 2 mps 726 mmHg 81%
    05:00 +5°C° 0 mm 2 mps 727 mmHg 77%
    06:00 +7°C° 0 mm 2 mps 727 mmHg 74%
    07:00 +8°C° 0 mm 2 mps 727 mmHg 71%
    08:00 +9°C° 0 mm 2 mps 727 mmHg 64%
    09:00 +12°C° 0 mm 2 mps 727 mmHg 57%
    10:00 +13°C° 0 mm 2 mps 727 mmHg 50%
    11:00 +14°C° 0 mm 2 mps 727 mmHg 48%
    12:00 +14°C° 0 mm 2 mps 727 mmHg 46%
    13:00 +15°C° 0 mm 2 mps 726 mmHg 44%
    14:00 +15°C° 0 mm 2 mps 726 mmHg 44%
    15:00 +15°C° 0 mm 2 mps 726 mmHg 45%
    16:00 +16°C° 0 mm 2 mps 725 mmHg 45%
    17:00 +14°C° 0 mm 2 mps 725 mmHg 52%
    18:00 +12°C° 0 mm 2 mps 725 mmHg 60%
    19:00 +10°C° 0 mm 2 mps 725 mmHg 67%
    20:00 +9°C° 0 mm 2 mps 725 mmHg 68%
    21:00 +9°C° 0 mm 2 mps 724 mmHg 69%
    22:00 +8°C° 0 mm 2 mps 724 mmHg 69%
    23:00 +8°C° 0 mm 2 mps 724 mmHg 69%

    28 April, Saturday

    Time Temperature Precipitation Wind Pressure Humidity
    00:00 +7°C° 0 mm 2 mps 724 mmHg 68%
    01:00 +7°C° 0 mm 2 mps 723 mmHg 68%
    02:00 +7°C° 0 mm 2 mps 723 mmHg 69%
    03:00 +7°C° 0 mm 2 mps 723 mmHg 69%
    04:00 +7°C° 0 mm 2 mps 723 mmHg 70%
    05:00 +8°C° 0 mm 3 mps 723 mmHg 72%
    06:00 +9°C° 0 mm 3 mps 723 mmHg 73%
    07:00 +11°C° 0 mm 4 mps 723 mmHg 74%
    08:00 +13°C° 0 mm 4 mps 723 mmHg 70%
    09:00 +15°C° 0 mm 4 mps 723 mmHg 66%
    10:00 +18°C° 0 mm 4 mps 724 mmHg 62%
    11:00 +19°C° 0 mm 3 mps 723 mmHg 59%
    12:00 +20°C° 0 mm 3 mps 723 mmHg 56%
    13:00 +21°C° 0 mm 3 mps 723 mmHg 53%
    14:00 +21°C° 0 mm 2 mps 723 mmHg 52%
    15:00 +21°C° 0 mm 2 mps 723 mmHg 52%
    16:00 +22°C° 0 mm 1 mps 723 mmHg 51%
    17:00 +20°C° 0.1 mm 1 mps 723 mmHg 59%
    18:00 +18°C° 0.1 mm 1 mps 723 mmHg 66%
    19:00 +16°C° 0.1 mm 1 mps 723 mmHg 73%
    20:00 +15°C° 0 mm 1 mps 723 mmHg 77%
    21:00 +14°C° 0 mm 1 mps 723 mmHg 80%
    22:00 +13°C° 0 mm 1 mps 723 mmHg 84%
    23:00 +13°C° 0.1 mm 1 mps 723 mmHg 85%
    Show more